Year,Month,Day,Hour,Minute,Value (Times are PST for temperature in C)
2009,04,14,00,00,4.20
2009,04,14,00,01,4.20
2009,04,14,00,02,4.20
2009,04,14,00,03,4.20
2009,04,14,00,04,4.10
2009,04,14,00,05,4.10
2009,04,14,00,06,4.10
2009,04,14,00,07,4.10
2009,04,14,00,08,4.00
2009,04,14,00,09,4.00
2009,04,14,00,10,3.90
2009,04,14,00,11,3.90
2009,04,14,00,12,3.80
2009,04,14,00,13,3.80
2009,04,14,00,14,3.80
2009,04,14,00,15,3.80
2009,04,14,00,16,3.70
2009,04,14,00,17,3.70
2009,04,14,00,18,3.70
2009,04,14,00,19,3.70
2009,04,14,00,20,3.60
2009,04,14,00,21,3.60
2009,04,14,00,22,3.60
2009,04,14,00,23,3.60
2009,04,14,00,24,3.60
2009,04,14,00,25,3.60
2009,04,14,00,26,3.50
2009,04,14,00,27,3.50
2009,04,14,00,28,3.50
2009,04,14,00,29,3.40
2009,04,14,00,30,3.40
2009,04,14,00,31,3.30
2009,04,14,00,32,3.30
2009,04,14,00,33,3.30
2009,04,14,00,34,3.20
2009,04,14,00,35,3.20
2009,04,14,00,36,3.20
2009,04,14,00,37,3.20
2009,04,14,00,38,3.20
2009,04,14,00,39,3.10
2009,04,14,00,40,3.10
2009,04,14,00,41,3.10
2009,04,14,00,42,3.10
2009,04,14,00,43,3.00
2009,04,14,00,44,3.00
2009,04,14,00,45,2.90
2009,04,14,00,46,2.90
2009,04,14,00,47,2.90
2009,04,14,00,48,2.80
2009,04,14,00,49,2.80
2009,04,14,00,50,2.80
2009,04,14,00,51,2.80
2009,04,14,00,52,2.70
2009,04,14,00,53,2.70
2009,04,14,00,54,2.70
2009,04,14,00,55,2.70
2009,04,14,00,56,2.70
2009,04,14,00,57,2.70
2009,04,14,00,58,2.70
2009,04,14,00,59,2.70
2009,04,14,01,00,2.70
2009,04,14,01,01,2.70
2009,04,14,01,02,2.70
2009,04,14,01,03,2.70
2009,04,14,01,04,2.70
2009,04,14,01,05,2.70
2009,04,14,01,06,2.60
2009,04,14,01,07,2.60
2009,04,14,01,08,2.60
2009,04,14,01,09,2.60
2009,04,14,01,10,2.50
2009,04,14,01,11,2.50
2009,04,14,01,12,2.40
2009,04,14,01,13,2.40
2009,04,14,01,14,2.30
2009,04,14,01,15,2.30
2009,04,14,01,16,2.40
2009,04,14,01,17,2.40
2009,04,14,01,18,2.40
2009,04,14,01,19,2.40
2009,04,14,01,20,2.40
2009,04,14,01,21,2.40
2009,04,14,01,22,2.40
2009,04,14,01,23,2.40
2009,04,14,01,24,2.40
2009,04,14,01,25,2.40
2009,04,14,01,26,2.40
2009,04,14,01,27,2.40
2009,04,14,01,28,2.40
2009,04,14,01,29,2.40
2009,04,14,01,30,2.40
2009,04,14,01,31,2.30
2009,04,14,01,32,2.30
2009,04,14,01,33,2.30
2009,04,14,01,34,2.30
2009,04,14,01,35,2.30
2009,04,14,01,36,2.30
2009,04,14,01,37,2.30
2009,04,14,01,38,2.30
2009,04,14,01,39,2.30
2009,04,14,01,40,2.30
2009,04,14,01,41,2.30
2009,04,14,01,42,2.30
2009,04,14,01,43,2.20
2009,04,14,01,44,2.20
2009,04,14,01,45,2.20
2009,04,14,01,46,2.20
2009,04,14,01,47,2.20
2009,04,14,01,48,2.10
2009,04,14,01,49,2.10
2009,04,14,01,50,2.10
2009,04,14,01,51,2.10
2009,04,14,01,52,2.10
2009,04,14,01,53,2.10
2009,04,14,01,54,2.10
2009,04,14,01,55,2.10
2009,04,14,01,56,2.10
2009,04,14,01,57,2.10
2009,04,14,01,58,2.10
2009,04,14,01,59,2.10
2009,04,14,02,00,2.10
2009,04,14,02,01,2.10
2009,04,14,02,02,2.10
2009,04,14,02,03,2.10
2009,04,14,02,04,2.10
2009,04,14,02,05,2.10
2009,04,14,02,06,2.10
2009,04,14,02,07,2.10
2009,04,14,02,08,2.10
2009,04,14,02,09,2.10
2009,04,14,02,10,2.00
2009,04,14,02,11,2.00
2009,04,14,02,12,2.10
2009,04,14,02,13,2.10
2009,04,14,02,14,2.10
2009,04,14,02,15,2.20
2009,04,14,02,16,2.20
2009,04,14,02,17,2.20
2009,04,14,02,18,2.20
2009,04,14,02,19,2.20
2009,04,14,02,20,2.20
2009,04,14,02,21,2.20
2009,04,14,02,22,2.20
2009,04,14,02,23,2.30
2009,04,14,02,24,2.30
2009,04,14,02,25,2.40
2009,04,14,02,26,2.40
2009,04,14,02,27,2.40
2009,04,14,02,28,2.40
2009,04,14,02,29,2.40
2009,04,14,02,30,2.30
2009,04,14,02,31,2.30
2009,04,14,02,32,2.30
2009,04,14,02,33,2.30
2009,04,14,02,34,2.20
2009,04,14,02,35,2.20
2009,04,14,02,36,2.10
2009,04,14,02,37,2.00
2009,04,14,02,38,2.00
2009,04,14,02,39,1.90
2009,04,14,02,40,1.80
2009,04,14,02,41,1.80
2009,04,14,02,42,1.70
2009,04,14,02,43,1.70
2009,04,14,02,44,1.60
2009,04,14,02,45,1.60
2009,04,14,02,46,1.60
2009,04,14,02,47,1.50
2009,04,14,02,48,1.50
2009,04,14,02,49,1.50
2009,04,14,02,50,1.40
2009,04,14,02,51,1.40
2009,04,14,02,52,1.30
2009,04,14,02,53,1.30
2009,04,14,02,54,1.30
2009,04,14,02,55,1.30
2009,04,14,02,56,1.30
2009,04,14,02,57,1.30
2009,04,14,02,58,1.30
2009,04,14,02,59,1.30
2009,04,14,03,00,1.30
2009,04,14,03,01,1.30
2009,04,14,03,02,1.30
2009,04,14,03,03,1.30
2009,04,14,03,04,1.30
2009,04,14,03,05,1.30
2009,04,14,03,06,1.20
2009,04,14,03,07,1.10
2009,04,14,03,08,1.10
2009,04,14,03,09,1.10
2009,04,14,03,10,1.00
2009,04,14,03,11,1.10
2009,04,14,03,12,1.00
2009,04,14,03,13,1.00
2009,04,14,03,14,1.00
2009,04,14,03,15,0.90
2009,04,14,03,16,0.90
2009,04,14,03,17,0.90
2009,04,14,03,18,0.90
2009,04,14,03,19,0.90
2009,04,14,03,20,0.90
2009,04,14,03,21,0.90
2009,04,14,03,22,0.90
2009,04,14,03,23,0.90
2009,04,14,03,24,0.90
2009,04,14,03,25,0.80
2009,04,14,03,26,0.80
2009,04,14,03,27,0.80
2009,04,14,03,28,0.80
2009,04,14,03,29,0.80
2009,04,14,03,30,0.80
2009,04,14,03,31,0.80
2009,04,14,04,02,0.60
2009,04,14,04,03,0.60
2009,04,14,04,04,0.60
2009,04,14,04,05,0.60
2009,04,14,04,06,0.60
2009,04,14,04,07,0.60
2009,04,14,04,08,0.60
2009,04,14,04,09,0.60
2009,04,14,04,10,0.60
2009,04,14,04,11,0.60
2009,04,14,04,12,0.60
2009,04,14,04,13,0.60
2009,04,14,04,14,0.50
2009,04,14,04,15,0.50
2009,04,14,04,16,0.50
2009,04,14,04,17,0.50
2009,04,14,04,18,0.50
2009,04,14,04,19,0.40
2009,04,14,04,20,0.40
2009,04,14,04,21,0.40
2009,04,14,04,22,0.40
2009,04,14,04,23,0.40
2009,04,14,04,24,0.40
2009,04,14,04,25,0.30
2009,04,14,04,26,0.30
2009,04,14,04,27,0.30
2009,04,14,04,28,0.30
2009,04,14,04,29,0.30
2009,04,14,04,30,0.30
2009,04,14,04,31,0.30
2009,04,14,04,32,0.20
2009,04,14,04,33,0.20
2009,04,14,04,34,0.20
2009,04,14,04,35,0.20
2009,04,14,04,36,0.20
2009,04,14,04,37,0.20
2009,04,14,04,38,0.20
2009,04,14,04,39,0.20
2009,04,14,04,40,0.20
2009,04,14,04,41,0.20
2009,04,14,04,42,0.20
2009,04,14,04,43,0.20
2009,04,14,04,44,0.30
2009,04,14,04,45,0.30
2009,04,14,04,46,0.30
2009,04,14,04,47,0.30
2009,04,14,04,48,0.30
2009,04,14,04,49,0.30
2009,04,14,04,50,0.30
2009,04,14,04,51,0.30
2009,04,14,04,52,0.30
2009,04,14,04,53,0.30
2009,04,14,04,54,0.30
2009,04,14,04,55,0.30
2009,04,14,04,56,0.30
2009,04,14,04,57,0.30
2009,04,14,04,58,0.30
2009,04,14,04,59,0.30
2009,04,14,05,00,0.30
2009,04,14,05,01,0.30
2009,04,14,05,02,0.30
2009,04,14,05,03,0.30
2009,04,14,05,04,0.30
2009,04,14,05,05,0.30
2009,04,14,05,06,0.30
2009,04,14,05,07,0.30
2009,04,14,05,08,0.30
2009,04,14,05,09,0.30
2009,04,14,05,10,0.30
2009,04,14,05,11,0.30
2009,04,14,05,12,0.20
2009,04,14,05,13,0.20
2009,04,14,05,14,0.10
2009,04,14,05,15,0.10
2009,04,14,05,16,0.10
2009,04,14,05,17,0.00
2009,04,14,05,18,0.00
2009,04,14,05,19,0.00
2009,04,14,05,20,-0.10
2009,04,14,05,21,-0.10
2009,04,14,05,22,-0.10
2009,04,14,05,23,-0.20
2009,04,14,05,24,-0.20
2009,04,14,05,25,-0.20
2009,04,14,05,26,-0.30
2009,04,14,05,27,-0.30
2009,04,14,05,28,-0.30
2009,04,14,05,29,-0.30
2009,04,14,05,30,-0.30
2009,04,14,05,31,-0.30
2009,04,14,05,32,-0.40
2009,04,14,05,33,-0.40
2009,04,14,05,34,-0.40
2009,04,14,05,35,-0.40
2009,04,14,05,36,-0.40
2009,04,14,05,37,-0.50
2009,04,14,05,38,-0.50
2009,04,14,05,39,-0.50
2009,04,14,05,40,-0.50
2009,04,14,05,41,-0.50
2009,04,14,05,42,-0.50
2009,04,14,05,43,-0.50
2009,04,14,05,44,-0.40
2009,04,14,05,45,-0.50
2009,04,14,05,46,-0.40
2009,04,14,05,47,-0.40
2009,04,14,05,48,-0.40
2009,04,14,05,49,-0.40
2009,04,14,05,50,-0.40
2009,04,14,05,51,-0.40
2009,04,14,05,52,-0.30
2009,04,14,05,53,-0.30
2009,04,14,05,54,-0.30
2009,04,14,05,55,-0.30
2009,04,14,05,56,-0.30
2009,04,14,05,57,-0.30
2009,04,14,05,58,-0.40
2009,04,14,05,59,-0.40
2009,04,14,06,00,-0.40
2009,04,14,06,01,-0.50
2009,04,14,06,02,-0.50
2009,04,14,06,03,-0.50
2009,04,14,06,04,-0.50
2009,04,14,06,05,-0.60
2009,04,14,06,06,-0.60
2009,04,14,06,07,-0.50
2009,04,14,06,08,-0.50
2009,04,14,06,09,-0.50
2009,04,14,06,10,-0.50
2009,04,14,06,11,-0.50
2009,04,14,06,12,-0.60
2009,04,14,06,13,-0.60
2009,04,14,06,14,-0.60
2009,04,14,06,15,-0.60
2009,04,14,06,16,-0.60
2009,04,14,06,17,-0.60
2009,04,14,06,18,-0.60
2009,04,14,06,19,-0.60
2009,04,14,06,20,-0.60
2009,04,14,06,21,-0.60
2009,04,14,06,22,-0.50
2009,04,14,06,23,-0.50
2009,04,14,06,24,-0.50
2009,04,14,06,25,-0.50
2009,04,14,06,26,-0.50
2009,04,14,06,27,-0.50
2009,04,14,06,28,-0.50
2009,04,14,06,29,-0.60
2009,04,14,06,30,-0.60
2009,04,14,06,31,-0.50
2009,04,14,06,32,-0.50
2009,04,14,06,33,-0.50
2009,04,14,06,34,-0.40
2009,04,14,06,35,-0.40
2009,04,14,06,36,-0.40
2009,04,14,06,37,-0.40
2009,04,14,06,38,-0.30
2009,04,14,06,39,-0.30
2009,04,14,06,40,-0.30
2009,04,14,06,41,-0.30
2009,04,14,06,42,-0.30
2009,04,14,06,43,-0.30
2009,04,14,06,44,-0.30
2009,04,14,06,45,-0.30
2009,04,14,06,46,-0.30
2009,04,14,06,47,-0.30
2009,04,14,06,48,-0.30
2009,04,14,06,49,-0.30
2009,04,14,06,50,-0.30
2009,04,14,06,51,-0.30
2009,04,14,06,52,-0.30
2009,04,14,06,53,-0.30
2009,04,14,06,54,-0.20
2009,04,14,06,55,-0.20
2009,04,14,06,56,-0.20
2009,04,14,06,57,-0.20
2009,04,14,06,58,-0.20
2009,04,14,06,59,-0.20
2009,04,14,07,00,-0.10
2009,04,14,07,01,-0.10
2009,04,14,07,02,-0.10
2009,04,14,07,03,-0.10
2009,04,14,07,04,-0.10
2009,04,14,07,05,-0.10
2009,04,14,07,06,0.00
2009,04,14,07,07,0.10
2009,04,14,07,08,0.10
2009,04,14,07,09,0.20
2009,04,14,07,10,0.20
2009,04,14,07,11,0.20
2009,04,14,07,12,0.20
2009,04,14,07,13,0.20
2009,04,14,07,14,0.20
2009,04,14,07,15,0.20
2009,04,14,07,16,0.20
2009,04,14,07,17,0.30
2009,04,14,07,18,0.30
2009,04,14,07,19,0.30
2009,04,14,07,20,0.40
2009,04,14,07,21,0.40
2009,04,14,07,22,0.50
2009,04,14,07,23,0.50
2009,04,14,07,24,0.50
2009,04,14,07,25,0.60
2009,04,14,07,26,0.60
2009,04,14,07,27,0.60
2009,04,14,07,28,0.70
2009,04,14,07,29,0.80
2009,04,14,07,30,0.90
2009,04,14,07,31,1.10
2009,04,14,07,32,1.30
2009,04,14,07,33,1.30
2009,04,14,07,34,1.50
2009,04,14,07,35,1.60
2009,04,14,07,36,1.70
2009,04,14,07,37,1.70
2009,04,14,07,38,1.80
2009,04,14,07,39,1.90
2009,04,14,07,40,1.90
2009,04,14,07,41,2.00
2009,04,14,07,42,2.00
2009,04,14,07,43,2.10
2009,04,14,07,44,2.10
2009,04,14,07,45,2.20
2009,04,14,07,46,2.20
2009,04,14,07,47,2.20
2009,04,14,07,48,2.30
2009,04,14,07,49,2.30
2009,04,14,07,50,2.40
2009,04,14,07,51,2.50
2009,04,14,07,52,2.50
2009,04,14,07,53,2.60
2009,04,14,07,54,2.70
2009,04,14,07,55,2.80
2009,04,14,07,56,2.90
2009,04,14,07,57,3.00
2009,04,14,07,58,3.10
2009,04,14,07,59,3.20
2009,04,14,08,00,3.30
2009,04,14,08,01,3.40
2009,04,14,08,02,3.50
2009,04,14,08,03,3.60
2009,04,14,08,04,3.70
2009,04,14,08,05,3.80
2009,04,14,08,06,4.00
2009,04,14,08,07,4.10
2009,04,14,08,08,4.20
2009,04,14,08,09,4.30
2009,04,14,08,10,4.50
2009,04,14,08,11,4.60
2009,04,14,08,12,4.80
2009,04,14,08,13,4.90
2009,04,14,08,14,5.00
2009,04,14,08,15,5.10
2009,04,14,08,16,5.20
2009,04,14,08,17,5.30
2009,04,14,08,18,5.30
2009,04,14,08,19,5.30
2009,04,14,08,20,5.30
2009,04,14,08,21,5.30
2009,04,14,08,22,5.40
2009,04,14,08,23,5.40
2009,04,14,08,24,5.40
2009,04,14,08,25,5.40
2009,04,14,08,26,5.40
2009,04,14,08,27,5.40
2009,04,14,08,28,5.40
2009,04,14,08,29,5.40
2009,04,14,08,30,5.40
2009,04,14,08,31,5.50
2009,04,14,08,32,5.50
2009,04,14,08,33,5.60
2009,04,14,08,34,5.60
2009,04,14,08,35,5.60
2009,04,14,08,36,5.70
2009,04,14,08,37,5.70
2009,04,14,08,38,5.70
2009,04,14,08,39,5.70
2009,04,14,08,40,5.80
2009,04,14,08,41,5.80
2009,04,14,08,42,5.90
2009,04,14,08,43,5.90
2009,04,14,08,44,6.00
2009,04,14,08,45,6.10
2009,04,14,08,46,6.10
2009,04,14,08,47,6.20
2009,04,14,08,48,6.30
2009,04,14,08,49,6.40
2009,04,14,08,50,6.50
2009,04,14,08,51,6.60
2009,04,14,08,52,6.60
2009,04,14,08,53,6.70
2009,04,14,08,54,6.80
2009,04,14,08,55,6.80
2009,04,14,08,56,6.80
2009,04,14,08,57,6.80
2009,04,14,08,58,6.80
2009,04,14,08,59,6.80
2009,04,14,09,00,6.80
2009,04,14,09,01,6.80
2009,04,14,09,02,6.80
2009,04,14,09,03,6.80
2009,04,14,09,04,6.80
2009,04,14,09,05,6.80
2009,04,14,09,06,6.80
2009,04,14,09,07,6.80
2009,04,14,09,08,6.80
2009,04,14,09,09,6.80
2009,04,14,09,10,6.80
2009,04,14,09,11,6.80
2009,04,14,09,12,6.80
2009,04,14,09,13,6.80
2009,04,14,09,14,6.80
2009,04,14,09,15,6.80
2009,04,14,09,16,6.80
2009,04,14,09,17,6.80
2009,04,14,09,18,6.80
2009,04,14,09,19,6.70
2009,04,14,09,20,6.70
2009,04,14,09,21,6.70
2009,04,14,09,22,6.70
2009,04,14,09,23,6.70
2009,04,14,09,24,6.60
2009,04,14,09,25,6.60
2009,04,14,09,26,6.50
2009,04,14,09,27,6.50
2009,04,14,09,28,6.50
2009,04,14,09,29,6.50
2009,04,14,09,30,6.50
2009,04,14,09,31,6.40
2009,04,14,09,32,6.40
2009,04,14,09,33,6.50
2009,04,14,09,34,6.50
2009,04,14,09,35,6.60
2009,04,14,09,36,6.70
2009,04,14,09,37,6.70
2009,04,14,09,38,6.80
2009,04,14,09,39,6.90
2009,04,14,09,40,7.00
2009,04,14,09,41,7.10
2009,04,14,09,42,7.10
2009,04,14,09,43,7.20
2009,04,14,09,44,7.20
2009,04,14,09,45,7.30
2009,04,14,09,46,7.40
2009,04,14,09,47,7.40
2009,04,14,09,48,7.40
2009,04,14,09,49,7.40
2009,04,14,09,50,7.50
2009,04,14,09,51,7.50
2009,04,14,09,52,7.60
2009,04,14,09,53,7.60
2009,04,14,09,54,7.70
2009,04,14,09,55,7.70
2009,04,14,09,56,7.80
2009,04,14,09,57,7.80
2009,04,14,09,58,7.80
2009,04,14,09,59,7.80
2009,04,14,10,00,7.80
2009,04,14,10,01,7.80
2009,04,14,10,02,7.70
2009,04,14,10,03,7.80
2009,04,14,10,04,7.80
2009,04,14,10,05,7.80
2009,04,14,10,06,7.80
2009,04,14,10,07,7.90
2009,04,14,10,08,7.90
2009,04,14,10,09,7.90
2009,04,14,10,10,7.90
2009,04,14,10,11,7.90
2009,04,14,10,12,7.80
2009,04,14,10,13,7.80
2009,04,14,10,14,7.80
2009,04,14,10,15,7.80
2009,04,14,10,16,7.70
2009,04,14,10,17,7.60
2009,04,14,10,18,7.60
2009,04,14,10,19,7.60
2009,04,14,10,20,7.60
2009,04,14,10,21,7.50
2009,04,14,10,22,7.50
2009,04,14,10,23,7.50
2009,04,14,10,24,7.50
2009,04,14,10,25,7.50
2009,04,14,10,26,7.40
2009,04,14,10,27,7.40
2009,04,14,10,28,7.40
2009,04,14,10,29,7.40
2009,04,14,10,30,7.40
2009,04,14,10,31,7.40
2009,04,14,10,32,7.40
2009,04,14,10,33,7.40
2009,04,14,10,34,7.40
2009,04,14,10,35,7.40
2009,04,14,10,36,7.40
2009,04,14,10,37,7.40
2009,04,14,10,38,7.40
2009,04,14,10,39,7.50
2009,04,14,10,40,7.60
2009,04,14,10,41,7.60
2009,04,14,10,42,7.70
2009,04,14,10,43,7.80
2009,04,14,10,44,7.80
2009,04,14,10,45,7.90
2009,04,14,10,46,8.00
2009,04,14,10,47,8.10
2009,04,14,10,48,8.20
2009,04,14,10,49,8.30
2009,04,14,10,50,8.40
2009,04,14,10,51,8.50
2009,04,14,10,52,8.60
2009,04,14,10,53,8.70
2009,04,14,10,54,8.80
2009,04,14,10,55,8.70
2009,04,14,10,56,8.70
2009,04,14,10,57,8.70
2009,04,14,10,58,8.60
2009,04,14,10,59,8.60
2009,04,14,11,00,8.60
2009,04,14,11,01,8.60
2009,04,14,11,02,8.60
2009,04,14,11,03,8.60
2009,04,14,11,04,8.60
2009,04,14,11,05,8.60
2009,04,14,11,06,8.60
2009,04,14,11,07,8.60
2009,04,14,11,08,8.60
2009,04,14,11,09,8.60
2009,04,14,11,10,8.60
2009,04,14,11,11,8.60
2009,04,14,11,12,8.60
2009,04,14,11,13,8.60
2009,04,14,11,14,8.60
2009,04,14,11,15,8.60
2009,04,14,11,16,8.60
2009,04,14,11,17,8.60
2009,04,14,11,18,8.70
2009,04,14,11,19,8.80
2009,04,14,11,20,8.90
2009,04,14,11,21,9.00
2009,04,14,11,22,9.10
2009,04,14,11,23,9.20
2009,04,14,11,24,9.30
2009,04,14,11,25,9.30
2009,04,14,11,26,9.40
2009,04,14,11,27,9.50
2009,04,14,11,28,9.60
2009,04,14,11,29,9.70
2009,04,14,11,30,9.70
2009,04,14,11,31,9.70
2009,04,14,11,32,9.80
2009,04,14,11,33,9.80
2009,04,14,11,34,9.70
2009,04,14,11,35,9.70
2009,04,14,11,36,9.60
2009,04,14,11,37,9.60
2009,04,14,11,38,9.60
2009,04,14,11,39,9.60
2009,04,14,11,40,9.60
2009,04,14,11,41,9.60
2009,04,14,11,42,9.70
2009,04,14,11,43,9.80
2009,04,14,11,44,9.80
2009,04,14,11,45,9.90
2009,04,14,11,46,9.90
2009,04,14,11,47,10.00
2009,04,14,11,48,10.10
2009,04,14,11,49,10.20
2009,04,14,11,50,10.20
2009,04,14,11,51,10.20
2009,04,14,11,52,10.20
2009,04,14,11,53,10.20
2009,04,14,11,54,10.20
2009,04,14,11,55,10.20
2009,04,14,11,56,10.30
2009,04,14,11,57,10.30
2009,04,14,11,58,10.40
2009,04,14,11,59,10.30
2009,04,14,12,00,10.20
2009,04,14,12,01,10.20
2009,04,14,12,02,10.20
2009,04,14,12,03,10.20
2009,04,14,12,04,10.20
2009,04,14,12,05,10.30
2009,04,14,12,06,10.30
2009,04,14,12,07,10.30
2009,04,14,12,08,10.30
2009,04,14,12,09,10.20
2009,04,14,12,10,10.20
2009,04,14,12,11,10.30
2009,04,14,12,12,10.50
2009,04,14,12,13,10.60
2009,04,14,12,14,10.70
2009,04,14,12,15,10.60
2009,04,14,12,16,10.60
2009,04,14,12,17,10.50
2009,04,14,12,18,10.50
2009,04,14,12,19,10.50
2009,04,14,12,20,10.60
2009,04,14,12,21,10.60
2009,04,14,12,22,10.70
2009,04,14,12,23,10.90
2009,04,14,12,24,11.00
2009,04,14,12,25,11.10
2009,04,14,12,26,11.20
2009,04,14,12,27,11.20
2009,04,14,12,28,11.20
2009,04,14,12,29,11.20
2009,04,14,12,30,11.10
2009,04,14,12,31,11.10
2009,04,14,12,32,10.80
2009,04,14,12,33,10.60
2009,04,14,12,34,10.50
2009,04,14,12,35,10.40
2009,04,14,12,36,10.30
2009,04,14,12,37,10.20
2009,04,14,12,38,10.20
2009,04,14,12,39,10.30
2009,04,14,12,40,10.40
2009,04,14,12,41,10.40
2009,04,14,12,42,10.40
2009,04,14,12,43,10.50
2009,04,14,12,44,10.50
2009,04,14,12,45,10.50
2009,04,14,12,46,10.60
2009,04,14,12,47,10.60
2009,04,14,12,48,10.70
2009,04,14,12,49,10.70
2009,04,14,12,50,10.90
2009,04,14,12,51,10.90
2009,04,14,12,52,10.90
2009,04,14,12,53,10.80
2009,04,14,12,54,10.70
2009,04,14,12,55,10.70
2009,04,14,12,56,10.60
2009,04,14,12,57,10.50
2009,04,14,12,58,10.50
2009,04,14,12,59,10.60
2009,04,14,13,00,10.70
2009,04,14,13,01,10.70
2009,04,14,13,02,10.70
2009,04,14,13,03,10.70
2009,04,14,13,04,10.70
2009,04,14,13,05,10.60
2009,04,14,13,06,10.60
2009,04,14,13,07,10.60
2009,04,14,13,08,10.60
2009,04,14,13,09,10.60
2009,04,14,13,10,10.60
2009,04,14,13,11,10.40
2009,04,14,13,12,10.30
2009,04,14,13,13,10.10
2009,04,14,13,14,10.10
2009,04,14,13,15,10.10
2009,04,14,13,16,10.10
2009,04,14,13,17,10.10
2009,04,14,13,18,10.30
2009,04,14,13,19,10.30
2009,04,14,13,20,10.40
2009,04,14,13,21,10.40
2009,04,14,13,22,10.40
2009,04,14,13,23,10.30
2009,04,14,13,24,10.40
2009,04,14,13,25,10.40
2009,04,14,13,26,10.60
2009,04,14,13,27,10.70
2009,04,14,13,28,10.80
2009,04,14,13,29,10.90
2009,04,14,13,30,10.90
2009,04,14,13,31,11.00
2009,04,14,13,32,11.10
2009,04,14,13,33,11.00
2009,04,14,13,34,11.00
2009,04,14,13,35,11.00
2009,04,14,13,36,10.90
2009,04,14,13,37,10.90
2009,04,14,13,38,10.90
2009,04,14,13,39,11.00
2009,04,14,13,40,11.00
2009,04,14,13,41,11.10
2009,04,14,13,42,11.20
2009,04,14,13,43,11.30
2009,04,14,13,44,11.30
2009,04,14,13,45,11.30
2009,04,14,13,46,11.30
2009,04,14,13,47,11.20
2009,04,14,13,48,11.10
2009,04,14,13,49,11.00
2009,04,14,13,50,11.00
2009,04,14,13,51,10.90
2009,04,14,13,52,10.80
2009,04,14,13,53,10.80
2009,04,14,13,54,10.80
2009,04,14,13,55,10.80
2009,04,14,13,56,10.70
2009,04,14,13,57,10.60
2009,04,14,13,58,10.60
2009,04,14,13,59,10.50
2009,04,14,14,00,10.40
2009,04,14,14,01,10.50
2009,04,14,14,02,10.50
2009,04,14,14,03,10.60
2009,04,14,14,04,10.60
2009,04,14,14,05,10.60
2009,04,14,14,06,10.60
2009,04,14,14,07,10.70
2009,04,14,14,08,10.80
2009,04,14,14,09,10.80
2009,04,14,14,10,10.80
2009,04,14,14,11,10.80
2009,04,14,14,12,10.80
2009,04,14,14,13,10.70
2009,04,14,14,14,10.70
2009,04,14,14,15,10.60
2009,04,14,14,16,10.60
2009,04,14,14,17,10.60
2009,04,14,14,18,10.60
2009,04,14,14,19,10.60
2009,04,14,14,20,10.70
2009,04,14,14,21,10.70
2009,04,14,14,22,10.80
2009,04,14,14,23,10.80
2009,04,14,14,24,10.80
2009,04,14,14,25,10.80
2009,04,14,14,26,10.70
2009,04,14,14,27,10.70
2009,04,14,14,28,10.70
2009,04,14,14,29,10.70
2009,04,14,14,30,10.70
2009,04,14,14,31,10.70
2009,04,14,14,32,10.70
2009,04,14,14,33,10.70
2009,04,14,14,34,10.70
2009,04,14,14,35,10.70
2009,04,14,14,36,10.70
2009,04,14,14,37,10.70
2009,04,14,14,38,10.70
2009,04,14,14,39,10.70
2009,04,14,14,40,10.70
2009,04,14,14,41,10.70
2009,04,14,14,42,10.60
2009,04,14,14,43,10.70
2009,04,14,14,44,10.70
2009,04,14,14,45,10.70
2009,04,14,14,46,10.80
2009,04,14,14,47,10.80
2009,04,14,14,48,10.80
2009,04,14,14,49,10.90
2009,04,14,14,50,10.90
2009,04,14,14,51,11.00
2009,04,14,14,52,11.00
2009,04,14,14,53,11.00
2009,04,14,14,54,11.00
2009,04,14,14,55,11.00
2009,04,14,14,56,10.90
2009,04,14,14,57,10.90
2009,04,14,14,58,10.90
2009,04,14,14,59,10.90
2009,04,14,15,00,10.80
2009,04,14,15,01,10.70
2009,04,14,15,02,10.70
2009,04,14,15,03,10.60
2009,04,14,15,04,10.50
2009,04,14,15,05,10.40
2009,04,14,15,06,10.40
2009,04,14,15,07,10.50
2009,04,14,15,08,10.50
2009,04,14,15,09,10.60
2009,04,14,15,10,10.70
2009,04,14,15,11,10.80
2009,04,14,15,12,10.80
2009,04,14,15,13,10.90
2009,04,14,15,14,11.00
2009,04,14,15,15,11.10
2009,04,14,15,16,11.20
2009,04,14,15,17,11.20
2009,04,14,15,18,11.20
2009,04,14,15,19,11.20
2009,04,14,15,20,11.10
2009,04,14,15,21,11.00
2009,04,14,15,22,11.10
2009,04,14,15,23,11.10
2009,04,14,15,24,11.10
2009,04,14,15,25,11.10
2009,04,14,15,26,11.10
2009,04,14,15,27,11.00
2009,04,14,15,28,11.00
2009,04,14,15,29,11.00
2009,04,14,15,30,11.10
2009,04,14,15,31,11.20
2009,04,14,15,32,11.30
2009,04,14,15,33,11.30
2009,04,14,15,34,11.30
2009,04,14,15,35,11.40
2009,04,14,15,36,11.50
2009,04,14,15,37,11.50
2009,04,14,15,38,11.60
2009,04,14,15,39,11.70
2009,04,14,15,40,11.70
2009,04,14,15,41,11.70
2009,04,14,15,42,11.70
2009,04,14,15,43,11.80
2009,04,14,15,44,11.70
2009,04,14,15,45,11.70
2009,04,14,15,46,11.70
2009,04,14,15,47,11.70
2009,04,14,15,48,11.60
2009,04,14,15,49,11.60
2009,04,14,15,50,11.60
2009,04,14,15,51,11.60
2009,04,14,15,52,11.60
2009,04,14,15,53,11.50
2009,04,14,15,54,11.50
2009,04,14,15,55,11.50
2009,04,14,15,56,11.60
2009,04,14,15,57,11.60
2009,04,14,15,58,11.60
2009,04,14,15,59,11.60
2009,04,14,16,00,11.60
2009,04,14,16,01,11.60
2009,04,14,16,02,11.60
2009,04,14,16,03,11.60
2009,04,14,16,04,11.60
2009,04,14,16,05,11.60
2009,04,14,16,06,11.50
2009,04,14,16,07,11.50
2009,04,14,16,08,11.40
2009,04,14,16,09,11.50
2009,04,14,16,10,11.50
2009,04,14,16,11,11.50
2009,04,14,16,12,11.50
2009,04,14,16,13,11.50
2009,04,14,16,14,11.50
2009,04,14,16,15,11.50
2009,04,14,16,16,11.50
2009,04,14,16,17,11.60
2009,04,14,16,18,11.60
2009,04,14,16,19,11.60
2009,04,14,16,20,11.60
2009,04,14,16,21,11.60
2009,04,14,16,22,11.60
2009,04,14,16,23,11.60
2009,04,14,16,24,11.60
2009,04,14,16,25,11.70
2009,04,14,16,26,11.70
2009,04,14,16,27,11.80
2009,04,14,16,28,11.80
2009,04,14,16,29,11.80
2009,04,14,16,30,11.80
2009,04,14,16,31,11.80
2009,04,14,16,32,11.70
2009,04,14,16,33,11.70
2009,04,14,16,34,11.60
2009,04,14,16,35,11.60
2009,04,14,16,36,11.50
2009,04,14,16,37,11.50
2009,04,14,16,38,11.50
2009,04,14,16,39,11.50
2009,04,14,16,40,11.50
2009,04,14,16,41,11.60
2009,04,14,16,42,11.60
2009,04,14,16,43,11.60
2009,04,14,16,44,11.60
2009,04,14,16,45,11.60
2009,04,14,16,46,11.60
2009,04,14,16,47,11.60
2009,04,14,16,48,11.60
2009,04,14,16,49,11.60
2009,04,14,16,50,11.70
2009,04,14,16,51,11.70
2009,04,14,16,52,11.70
2009,04,14,16,53,11.70
2009,04,14,16,54,11.70
2009,04,14,16,55,11.70
2009,04,14,16,56,11.70
2009,04,14,16,57,11.70
2009,04,14,16,58,11.70
2009,04,14,16,59,11.70
2009,04,14,17,00,11.60
2009,04,14,17,01,11.70
2009,04,14,17,02,11.70
2009,04,14,17,03,11.70
2009,04,14,17,04,11.80
2009,04,14,17,05,11.80
2009,04,14,17,06,11.80
2009,04,14,17,07,11.80
2009,04,14,17,08,11.90
2009,04,14,17,09,11.90
2009,04,14,17,10,11.90
2009,04,14,17,11,12.00
2009,04,14,17,12,12.00
2009,04,14,17,13,12.10
2009,04,14,17,14,12.20
2009,04,14,17,15,12.30
2009,04,14,17,16,12.30
2009,04,14,17,17,12.30
2009,04,14,17,18,12.30
2009,04,14,17,19,12.30
2009,04,14,17,20,12.30
2009,04,14,17,21,12.30
2009,04,14,17,22,12.30
2009,04,14,17,23,12.30
2009,04,14,17,24,12.30
2009,04,14,17,25,12.30
2009,04,14,17,26,12.30
2009,04,14,17,27,12.30
2009,04,14,17,28,12.30
2009,04,14,17,29,12.30
2009,04,14,17,30,12.40
2009,04,14,17,31,12.40
2009,04,14,17,32,12.40
2009,04,14,17,33,12.40
2009,04,14,17,34,12.40
2009,04,14,17,35,12.30
2009,04,14,17,36,12.20
2009,04,14,17,37,12.10
2009,04,14,17,38,12.10
2009,04,14,17,39,12.10
2009,04,14,17,40,12.10
2009,04,14,17,41,12.10
2009,04,14,17,42,12.10
2009,04,14,17,43,12.10
2009,04,14,17,44,12.10
2009,04,14,17,45,12.00
2009,04,14,17,46,11.90
2009,04,14,17,47,11.80
2009,04,14,17,48,11.80
2009,04,14,17,49,11.80
2009,04,14,17,50,11.80
2009,04,14,17,51,11.80
2009,04,14,17,52,11.80
2009,04,14,17,53,11.90
2009,04,14,17,54,11.90
2009,04,14,17,55,12.00
2009,04,14,17,56,12.00
2009,04,14,17,57,12.10
2009,04,14,17,58,12.10
2009,04,14,17,59,12.10
2009,04,14,18,00,12.10
2009,04,14,18,01,12.10
2009,04,14,18,02,12.00
2009,04,14,18,03,12.00
2009,04,14,18,04,12.00
2009,04,14,18,05,12.00
2009,04,14,18,06,12.00
2009,04,14,18,07,12.00
2009,04,14,18,08,11.90
2009,04,14,18,09,11.90
2009,04,14,18,10,11.90
2009,04,14,18,11,11.90
2009,04,14,18,12,11.90
2009,04,14,18,13,11.80
2009,04,14,18,14,11.90